Location: Newark
(25.6108°S, 54.5803°W)
Time: 04:39:28
(UTC+00:00)

deb Explorer IX - Pass Details

Date: 27 October 2020
Orbit: 538 x 1104 km, 38.8° (Epoch: 29 November)

Event Time Altitude Azimuth Distance (km) Brightness Sun altitude
Rises 21:38:04 0° 269° (W) 3,273 ? 2.1°
Reaches altitude 10° 21:41:05 10° 256° (WSW) 2,238 ? 1.5°
Maximum altitude 21:45:21 25° 200° (SSW) 1,328 ? 0.6°
Drops below altitude 10° 21:49:11 10° 143° (SE) 1,980 ? -0.3°
Sets 21:51:41 0° 130° (SE) 2,818 ? -0.8°
